View from above orbital plane
|
View from above satellite
|
Ground track
|
The orbit data is extracted from the following two-line orbital elements,
1 00877U 64053B 21015.53053658 -.00000059 00000-0 13236-4 0 9998
2 00877 65.0784 69.2135 0079051 307.7725 51.6231 14.59413880992442
Epoch (UTC): | 15 January 2021 12:43:58 |
Eccentricity: | 0.0079051 |
inclination: | 65.0784° |
perigee height: | 639 km |
apogee height: | 751 km |
right ascension of ascending node: | 69.2135° |
argument of perigee: | 307.7725° |
revolutions per day: | 14.59413880 |
mean anomaly at epoch: | 51.6231° |
orbit number at epoch: | 99244 |
The dashed part of the orbit path shows where the satellite is in the earth's shadow,
|
|